Wheaton, MN

2:47 PM CST on February 11, 2016 (GMT -0600)
Wheaton Municipal

Weather History for KETH - September, 2012

Change the Weather History Date:

Wednesday, September 12, 2012

  Actual Average Record
Temperature  
Mean Temperature 61 °F -  
Max Temperature 71 °F 76 °F 93 °F (1969)
Min Temperature 51 °F 50 °F 33 °F (2007)
Degree Days  
Heating Degree Days 4    
Growing Degree Days 11 (Base 50)    
Moisture  
Dew Point 37 °F    
Average Humidity 45    
Maximum Humidity 72    
Minimum Humidity 19    
Precipitation  
Precipitation 0.00 in - - ()
Sea Level Pressure  
Sea Level Pressure 30.16 in    
Wind  
Wind Speed 5 mph (West)    
Max Wind Speed 18 mph    
Max Gust Speed 24 mph    
Visibility 10 miles    
Events Rain    
Averages and records for this station are not official NWS values.
T = Trace of Precipitation, MM = Missing Value Source: NWS Daily Summary

Daily Weather History Graph

Daily Weather History Graph

Search for Another Location

Airport or City:

Trip Planner

Search our weather history database for the weather conditions in past years. The results will help you decide how hot, cold, wet, or windy it might be!

Date:

Astronomy

Sep. 12, 2012 Rise Set
Actual Time 7:01 AM CDT 7:42 PM CDT
Civil Twilight 6:31 AM CDT 8:12 PM CDT
Nautical Twilight 5:55 AM CDT 8:47 PM CDT
Astronomical Twilight 5:18 AM CDT 9:24 PM CDT
Moon 3:10 AM CDT (9/12) 5:37 PM CDT (9/12)
Length of Visible Light 13h 40m
Length of Day
12h 40m
Waning Crescent, 13% of the Moon is Illuminated
Sep 12
Waning Crescent
Sep 15
New
Sep 22
First Quarter
Sep 29
Full
Oct 8
Last Quarter

Hourly Weather History & Observations

Time (CDT) Temp. Dew Point Humidity Pressure Visibility Wind Dir Wind Speed Gust Speed Precip Events Conditions
12:19 AM 60.8 °F 35.6 °F 39% 30.01 in 10.0 mi West 3.5 mph - N/A   Clear
12:59 AM 59.0 °F 37.4 °F 45% 30.03 in 10.0 mi WNW 3.5 mph - N/A   Clear
1:19 AM 59.0 °F 37.4 °F 45% 30.03 in 10.0 mi WNW 6.9 mph - N/A   Clear
1:39 AM 59.0 °F 37.4 °F 45% 30.03 in 10.0 mi WNW 3.5 mph - N/A   Clear
1:59 AM 59.0 °F 39.2 °F 48% 30.03 in 10.0 mi West 3.5 mph - N/A   Clear
2:19 AM 59.0 °F 39.2 °F 48% 30.04 in 10.0 mi Calm Calm - N/A Rain Light Rain
2:39 AM 57.2 °F 44.6 °F 63% 30.05 in 10.0 mi WSW 3.5 mph - N/A Rain Light Rain
2:59 AM 55.4 °F 46.4 °F 72% 30.07 in 10.0 mi SW 5.8 mph - N/A Rain Light Rain
3:19 AM 55.4 °F 46.4 °F 72% 30.07 in 10.0 mi WSW 5.8 mph - N/A   Overcast
3:39 AM 55.4 °F 46.4 °F 72% 30.07 in 10.0 mi Calm Calm - N/A   Mostly Cloudy
3:59 AM 55.4 °F 44.6 °F 67% 30.06 in 10.0 mi West 4.6 mph - N/A   Mostly Cloudy
4:19 AM 57.2 °F 44.6 °F 63% 30.06 in 10.0 mi Calm Calm - N/A   Scattered Clouds
4:39 AM 57.2 °F 44.6 °F 63% 30.07 in 10.0 mi WSW 4.6 mph - N/A   Clear
4:59 AM 55.4 °F 44.6 °F 67% 30.08 in 10.0 mi WSW 4.6 mph - N/A   Clear
5:19 AM 57.2 °F 42.8 °F 59% 30.07 in 10.0 mi WSW 3.5 mph - N/A   Clear
5:39 AM 57.2 °F 42.8 °F 59% 30.07 in 10.0 mi West 3.5 mph - N/A   Clear
5:59 AM 57.2 °F 42.8 °F 59% 30.09 in 10.0 mi West 4.6 mph - N/A   Clear
6:19 AM 57.2 °F 42.8 °F 59% 30.09 in 10.0 mi WNW 5.8 mph - N/A   Clear
6:39 AM 55.4 °F 42.8 °F 63% 30.10 in 10.0 mi WNW 5.8 mph - N/A   Clear
6:59 AM 55.4 °F 42.8 °F 63% 30.11 in 10.0 mi WNW 4.6 mph - N/A   Clear
7:19 AM 55.4 °F 42.8 °F 63% 30.12 in 10.0 mi WNW 3.5 mph - N/A   Clear
7:39 AM 55.4 °F 42.8 °F 63% 30.13 in 10.0 mi Calm Calm - N/A   Clear
7:59 AM 55.4 °F 41.0 °F 58% 30.12 in 10.0 mi Calm Calm - N/A   Clear
8:19 AM 55.4 °F 42.8 °F 63% 30.13 in 10.0 mi Calm Calm - N/A   Clear
8:39 AM 55.4 °F 44.6 °F 67% 30.15 in 10.0 mi WSW 3.5 mph - N/A   Clear
8:59 AM 55.4 °F 42.8 °F 63% 30.16 in 10.0 mi SW 3.5 mph - N/A   Clear
9:19 AM 57.2 °F 42.8 °F 59% 30.16 in 10.0 mi Calm Calm - N/A   Clear
9:39 AM 59.0 °F 42.8 °F 55% 30.17 in 10.0 mi WSW 3.5 mph - N/A   Clear
9:59 AM 59.0 °F 41.0 °F 51% 30.19 in 10.0 mi West 3.5 mph - N/A   Clear
10:19 AM 60.8 °F 41.0 °F 48% 30.20 in 10.0 mi WSW 3.5 mph - N/A   Clear
10:39 AM 60.8 °F 41.0 °F 48% 30.20 in 10.0 mi West 3.5 mph - N/A   Clear
10:59 AM 62.6 °F 39.2 °F 42% 30.20 in 10.0 mi West 6.9 mph - N/A   Clear
11:19 AM 64.4 °F 39.2 °F 40% 30.20 in 10.0 mi WNW 5.8 mph - N/A   Clear
11:39 AM 64.4 °F 39.2 °F 40% 30.20 in 10.0 mi WNW 5.8 mph - N/A   Clear
11:59 AM 69.8 °F 35.6 °F 28% 30.20 in 10.0 mi NW 10.4 mph - N/A   Clear
12:19 PM 68.0 °F 32.0 °F 26% 30.20 in 10.0 mi WNW 10.4 mph 17.3 mph N/A   Clear
12:39 PM 69.8 °F 30.2 °F 23% 30.20 in 10.0 mi WNW 12.7 mph - N/A   Clear
12:59 PM 68.0 °F 30.2 °F 24% 30.20 in 10.0 mi NW 9.2 mph - N/A   Clear
1:19 PM 69.8 °F 32.0 °F 25% 30.20 in 10.0 mi West 10.4 mph - N/A   Clear
1:39 PM 69.8 °F 30.2 °F 23% 30.20 in 10.0 mi West 8.1 mph - N/A   Clear
1:59 PM 71.6 °F 30.2 °F 22% 30.19 in 10.0 mi West 13.8 mph 19.6 mph N/A   Clear
2:19 PM 71.6 °F 28.4 °F 20% 30.19 in 10.0 mi West 13.8 mph 24.2 mph N/A   Clear
2:40 PM 71.6 °F 26.6 °F 19% 30.18 in 10.0 mi West 15.0 mph 24.2 mph N/A   Clear
2:59 PM 71.6 °F 28.4 °F 20% 30.18 in 10.0 mi West 18.4 mph 24.2 mph N/A   Clear
3:39 PM 71.6 °F 28.4 °F 20% 30.18 in 10.0 mi WNW 13.8 mph 23.0 mph N/A   Clear
3:59 PM 69.8 °F 28.4 °F 21% 30.19 in 10.0 mi WNW 18.4 mph 24.2 mph N/A   Clear
4:19 PM 69.8 °F 30.2 °F 23% 30.18 in 10.0 mi West 8.1 mph - N/A   Clear
4:39 PM 69.8 °F 30.2 °F 23% 30.18 in 10.0 mi West 10.4 mph - N/A   Clear
4:59 PM 69.8 °F 30.2 °F 23% 30.19 in 10.0 mi WNW 11.5 mph - N/A   Clear
5:19 PM 69.8 °F 28.4 °F 21% 30.19 in 10.0 mi West 10.4 mph - N/A   Clear
5:38 PM 68.0 °F 30.2 °F 24% 30.19 in 10.0 mi West 5.8 mph - N/A   Clear
5:58 PM 68.0 °F 30.2 °F 24% 30.19 in 7.0 mi West 6.9 mph - N/A   Clear
6:19 PM 68.0 °F 30.2 °F 24% 30.19 in 10.0 mi West 4.6 mph - N/A   Clear
6:39 PM 66.2 °F 33.8 °F 30% 30.19 in 10.0 mi WSW 3.5 mph - N/A   Clear
6:58 PM 64.4 °F 35.6 °F 34% 30.20 in 10.0 mi Calm Calm - N/A   Clear
7:19 PM 64.4 °F 33.8 °F 32% 30.20 in 10.0 mi Calm Calm - N/A   Clear
7:38 PM 62.6 °F 35.6 °F 37% 30.21 in 10.0 mi West 3.5 mph - N/A   Clear
7:59 PM 60.8 °F 35.6 °F 39% 30.21 in 10.0 mi West 3.5 mph - N/A   Clear
8:19 PM 59.0 °F 37.4 °F 45% 30.22 in 10.0 mi WNW 3.5 mph - N/A   Clear
8:39 PM 57.2 °F 37.4 °F 48% 30.23 in 10.0 mi WNW 4.6 mph - N/A   Clear
8:59 PM 57.2 °F 35.6 °F 44% 30.24 in 10.0 mi Calm Calm - N/A   Clear
9:19 PM 55.4 °F 35.6 °F 47% 30.25 in 10.0 mi WNW 4.6 mph - N/A   Clear
9:39 PM 55.4 °F 35.6 °F 47% 30.25 in 10.0 mi WNW 4.6 mph - N/A   Clear
9:59 PM 53.6 °F 37.4 °F 54% 30.26 in 10.0 mi West 3.5 mph - N/A   Clear
10:19 PM 55.4 °F 35.6 °F 47% 30.26 in 10.0 mi WNW 4.6 mph - N/A   Clear
10:39 PM 55.4 °F 35.6 °F 47% 30.27 in 10.0 mi West 3.5 mph - N/A   Clear
11:19 PM 53.6 °F 35.6 °F 51% 30.27 in 10.0 mi Calm Calm - N/A   Clear
11:39 PM 51.8 °F 35.6 °F 54% 30.27 in 10.0 mi Calm Calm - N/A   Clear
11:59 PM 51.8 °F 35.6 °F 54% 30.27 in 10.0 mi Calm Calm - N/A   Clear